Regional Weather Roundup
Issued by NWS Albany, NY

Home | Current Version | Previous Version | Graphics & Text | Print | Product List | Glossary Off
Versions: 1 2 3 4 5 6 7 8 9 10 11 12 13 14 15 16 17 18 19 20 21 22 23 24 25 26 27 28 29 30 31 32 33 34 35 36 37 38 39 40 41 42 43 44 45 46 47 48 49 50

000
ASUS41 KALY 200610
RWRALY

NEW YORK STATE HOURLY WEATHER ROUNDUP
NATIONAL WEATHER SERVICE ALBANY NY
200 AM EDT MON OCT 20 2014

NOTE: "FAIR" INDICATES FEW OR NO CLOUDS BELOW 12,000 FEET WITH NO
SIGNIFICANT WEATHER AND/OR NO OBSTRUCTIONS TO VISIBILITY.

NYZ032-033-038>043-046>054-057>066-NYZ062>081-200700-
EAST


CITY           SKY/WX    TMP DP  RH WIND       PRES   REMARKS
ALBANY         MOCLDY    35  29  78 CALM      30.05R
GLENS FALLS    PTCLDY    31  27  85 CALM      30.03R
POUGHKEEPSIE   PTCLDY    33  29  85 CALM      30.05F
MONTGOMERY     MOCLDY    33  27  78 SW5       30.06R WCI  29
WHITE PLAINS   PTCLDY    40  27  59 NW7       30.04S
ISLIP          CLEAR     39  29  67 CALM      30.04R
NEW YORK CITY  MOCLDY    44  29  55 NW8       30.06S
CENTRAL PARK   MOCLDY    43  27  53 NW5       30.09S
$$

NYZ005>009-017-018-044>046-055-056-200700-
CENTRAL


CITY           SKY/WX    TMP DP  RH WIND       PRES   REMARKS
FULTON         PTCLDY    38  31  76 S8        30.01F WCI  32
SYRACUSE       PTCLDY    41  32  70 SW5       30.03S
ROME           PTCLDY    33  31  92 CALM      30.04S
ELMIRA         PTCLDY    30  29  96 CALM      30.05S
BINGHAMTON     MOCLDY    32  27  81 SW7       30.01F WCI  26
MONTICELLO     MOCLDY    30  27  86 W6        30.03F WCI  24
$$

NYZ026>034-041>043-200700-
NORTH


CITY           SKY/WX    TMP DP  RH WIND       PRES   REMARKS
WATERTOWN      MOCLDY    31  26  82 CALM      30.00F
FORT DRUM      NOT AVBL
MASSENA        PTCLDY    29  27  92 SW5       30.02R WCI  24
SARANAC LAKE   PTCLDY    25  23  92 S3        29.94R
PLATTSBURGH    CLOUDY    36  25  64 CALM      29.99S
$$

NYZ001>004-010>016-019>021-200700-
WEST


CITY           SKY/WX    TMP DP  RH WIND       PRES   REMARKS
NIAGARA FALLS  CLOUDY    39  35  86 CALM      29.98
BUFFALO        CLOUDY    42  36  79 SE5       29.99F
DUNKIRK        MOCLDY    45  35  68 S15G23    30.00F
JAMESTOWN      CLOUDY    37  32  81 S6        30.00F WCI  33
WELLSVILLE     MOCLDY    37  29  72 SW3       30.02S
ROCHESTER      MOCLDY    37  32  82 SW6       30.02S WCI  32
PENN YAN       PTCLDY    40  33  76 S8        30.02F WCI  34
$$

             KEY
       WCI = WIND CHILL INDEX
       VSB = VISIBILITY
       HX  = HEAT INDEX
$$



USA.gov is the U.S. government's official web portal to all federal, state and local government web resources and services.